Location: Allison's Woods
(35.8809°N, 80.8140°W)
Time: 10:54:06
(UTC-04:00)

Iridium 39 - Visible Passes

Search period start: 25 May 2016 00:00
Search period end: 04 June 2016 00:00
Orbit: 776 x 779 km, 86.4° (Epoch: 24 May)

Date Brightness Start Highest point End Pass type
(mag) Time Alt. Az. Time Alt. Az. Time Alt. Az.
25 May 6.3 21:40:10 10° S 21:45:20 69° W 21:50:33 10° N visible
26 May 6.1 21:06:43 10° SSE 21:11:51 62° E 21:16:59 10° N visible
26 May 8.8 22:50:44 10° WSW 22:52:58 13° WNW 22:55:14 10° NW visible
27 May 8.2 22:14:58 10° SW 22:19:09 24° W 22:23:22 10° NNW visible
28 May 7.1 21:40:29 10° SSW 21:45:28 46° W 21:50:28 10° N visible
29 May 6.1 21:06:41 10° S 21:11:53 89° W 21:17:08 10° N visible
30 May 8.7 22:16:08 10° WSW 22:19:23 17° WNW 22:22:41 10° NW visible
31 May 7.9 21:41:03 10° SW 21:45:37 31° W 21:50:14 10° NNW visible
01 Jun 6.7 21:06:51 10° SSW 21:11:59 60° W 21:17:09 10° N visible
02 Jun 9.1 22:18:22 10° W 22:19:42 11° WNW 22:21:01 10° WNW visible
03 Jun 8.6 21:41:55 10° SW 21:45:50 21° W 21:49:47 10° NNW visible
